Effingham, IL

5:38 AM CST on November 19, 2017 (GMT -0600)
Effingham

Weather History for K1H2 - August, 2014

Change the Weather History Date:

Friday, August 15, 2014

  Actual Average (KMTO) Record (KMTO)
Temperature  
Mean Temperature 68 °F -  
Max Temperature 78 °F 84 °F 100 °F (1988)
Min Temperature 58 °F 64 °F 48 °F (1992)
Cooling Degree Days 2    
Growing Degree Days 18 (Base 50)    
Moisture  
Dew Point 58 °F    
Average Humidity 71    
Maximum Humidity 87    
Minimum Humidity 50    
Precipitation  
Precipitation 0.00 in - - ()
Sea Level Pressure  
Sea Level Pressure 30.05 in    
Wind  
Wind Speed 4 mph (East)    
Max Wind Speed 9 mph    
Max Gust Speed -    
Visibility 10 miles    
Events Rain    
Averages and records for this station are not official NWS values.
T = Trace of Precipitation, MM = Missing Value Source: NWS Daily Summary

Daily Weather History Graph

Daily Weather History Graph

Search for Another Location

Airport or City:

Trip Planner

Search our weather history database for the weather conditions in past years. The results will help you decide how hot, cold, wet, or windy it might be!

Date:

Astronomy

Aug. 15, 2014 Rise Set
Actual Time 6:07 AM CDT 7:49 PM CDT
Civil Twilight 5:38 AM CDT 8:17 PM CDT
Nautical Twilight 5:04 AM CDT 8:51 PM CDT
Astronomical Twilight 4:27 AM CDT 9:28 PM CDT
Moon 10:54 PM CDT (8/15) 11:47 AM CDT (8/15)
Length of Visible Light 14h 38m
Length of Day
13h 41m
Waning Gibbous, 69% of the Moon is Illuminated
Aug 15
Waning Gibbous
Aug 17
Last Quarter
Aug 25
New
Sep 2
First Quarter
Sep 8
Full

Hourly Weather History & Observations

Time (CDT) Temp. Dew Point Humidity Pressure Visibility Wind Dir Wind Speed Gust Speed Precip Events Conditions
12:10 AM 64.6 °F 59.0 °F 82% 30.06 in 10.0 mi ENE 3.5 mph - N/A Rain Rain
12:30 AM 63.7 °F 58.1 °F 82% 30.05 in 10.0 mi East 5.8 mph - N/A Rain Rain
12:50 AM 63.9 °F 57.6 °F 80% 30.06 in 10.0 mi East 3.5 mph - N/A Rain Rain
1:10 AM 62.4 °F 57.6 °F 84% 30.06 in 10.0 mi East 3.5 mph - N/A Rain Rain
1:30 AM 62.6 °F 57.7 °F 84% 30.06 in 10.0 mi Calm Calm - N/A Rain Rain
1:50 AM 61.7 °F 57.4 °F 86% 30.06 in 10.0 mi Calm Calm - N/A Rain Rain
2:10 AM 61.3 °F 57.0 °F 86% 30.05 in 10.0 mi Calm Calm - N/A Rain Rain
2:30 AM 60.4 °F 56.5 °F 87% 30.05 in 10.0 mi Calm Calm - N/A Rain Rain
2:50 AM 61.0 °F 56.3 °F 85% 30.05 in 10.0 mi ENE 3.5 mph - N/A Rain Rain
3:10 AM 61.2 °F 56.3 °F 84% 30.05 in 10.0 mi ENE 3.5 mph - N/A Rain Rain
3:30 AM 61.3 °F 56.3 °F 83% 30.06 in 10.0 mi ENE 3.5 mph - N/A Rain Light Rain
3:50 AM 61.3 °F 56.1 °F 83% 30.06 in 10.0 mi ENE 3.5 mph - N/A   Overcast
4:10 AM 60.8 °F 55.4 °F 82% 30.06 in 10.0 mi East 3.5 mph - N/A   Overcast
4:30 AM 60.8 °F 54.5 °F 80% 30.06 in 10.0 mi East 3.5 mph - N/A   Overcast
4:50 AM 60.4 °F 54.0 °F 79% 30.06 in 10.0 mi East 3.5 mph - N/A   Overcast
5:10 AM 60.3 °F 53.6 °F 79% 30.06 in 10.0 mi East 3.5 mph - N/A   Overcast
5:30 AM 60.1 °F 53.6 °F 79% 30.06 in 10.0 mi ENE 3.5 mph - N/A   Overcast
5:50 AM 59.0 °F 53.6 °F 82% 30.06 in 10.0 mi East 3.5 mph - N/A   Mostly Cloudy
6:10 AM 58.5 °F 52.9 °F 82% 30.07 in 10.0 mi East 3.5 mph - N/A   Mostly Cloudy
6:30 AM 58.5 °F 52.7 °F 81% 30.08 in 10.0 mi East 4.6 mph - N/A   Overcast
6:50 AM 59.0 °F 53.1 °F 81% 30.08 in 10.0 mi Calm Calm - N/A   Mostly Cloudy
7:10 AM 60.6 °F 52.7 °F 75% 30.09 in 10.0 mi East 3.5 mph - N/A   Mostly Cloudy
7:30 AM 60.1 °F 52.2 °F 75% 30.10 in 10.0 mi ESE 4.6 mph - N/A   Overcast
7:50 AM 60.3 °F 51.8 °F 74% 30.10 in 10.0 mi ENE 3.5 mph - N/A   Overcast
8:10 AM 60.8 °F 52.3 °F 74% 30.10 in 10.0 mi ESE 5.8 mph - N/A   Overcast
8:30 AM 62.4 °F 53.1 °F 71% 30.11 in 10.0 mi Calm Calm - N/A   Scattered Clouds
8:50 AM 64.4 °F 52.2 °F 64% 30.10 in 10.0 mi ESE 6.9 mph - N/A   Clear
9:10 AM 66.2 °F 50.2 °F 56% 30.10 in 10.0 mi ESE 6.9 mph - N/A   Clear
9:30 AM 68.2 °F 49.3 °F 51% 30.10 in 10.0 mi East 9.2 mph - N/A   Clear
9:50 AM 68.9 °F 50.5 °F 52% 30.10 in 10.0 mi ESE 5.8 mph - N/A   Scattered Clouds
10:10 AM 70.2 °F 52.3 °F 53% 30.10 in 10.0 mi East 6.9 mph - N/A   Scattered Clouds
10:30 AM 71.2 °F 53.8 °F 54% 30.10 in 10.0 mi ESE 5.8 mph - N/A   Clear
10:50 AM 72.5 °F 54.1 °F 52% 30.10 in 10.0 mi East 4.6 mph - N/A   Clear
11:10 AM 73.2 °F 54.9 °F 52% 30.09 in 10.0 mi ESE 5.8 mph - N/A   Clear
11:30 AM 73.8 °F 54.7 °F 51% 30.10 in 10.0 mi SSE 5.8 mph - N/A   Clear
11:50 AM 75.2 °F 55.4 °F 50% 30.08 in 10.0 mi SE 3.5 mph - N/A   Clear
12:10 PM 75.9 °F 57.6 °F 53% 30.08 in 10.0 mi ESE 5.8 mph - N/A   Clear
12:30 PM 76.8 °F 58.3 °F 53% 30.08 in 10.0 mi ESE 4.6 mph - N/A   Scattered Clouds
12:50 PM 77.2 °F 58.3 °F 52% 30.07 in 10.0 mi Calm Calm - N/A   Scattered Clouds
1:10 PM 77.4 °F 59.5 °F 54% 30.06 in 10.0 mi East 4.6 mph - N/A   Clear
1:30 PM 77.7 °F 58.8 °F 52% 30.06 in 10.0 mi ESE 5.8 mph - N/A   Scattered Clouds
1:50 PM 77.5 °F 59.4 °F 53% 30.05 in 10.0 mi ESE 4.6 mph - N/A   Mostly Cloudy
2:10 PM 77.2 °F 59.5 °F 54% 30.05 in 10.0 mi East 4.6 mph - N/A   Mostly Cloudy
2:30 PM 77.5 °F 61.2 °F 57% 30.04 in 10.0 mi East 4.6 mph - N/A   Scattered Clouds
2:50 PM 77.4 °F 61.2 °F 57% 30.04 in 10.0 mi ESE 4.6 mph - N/A   Scattered Clouds
3:10 PM 77.0 °F 61.5 °F 59% 30.03 in 10.0 mi Calm Calm - N/A   Mostly Cloudy
3:30 PM 77.0 °F 61.0 °F 58% 30.03 in 7.0 mi ESE 3.5 mph - N/A   Mostly Cloudy
3:50 PM 77.0 °F 60.6 °F 57% 30.03 in 7.0 mi Calm Calm - N/A   Scattered Clouds
4:10 PM 77.2 °F 61.9 °F 59% 30.02 in 10.0 mi ESE 3.5 mph - N/A   Clear
4:30 PM 76.8 °F 62.4 °F 61% 30.02 in 10.0 mi ESE 3.5 mph - N/A   Clear
4:50 PM 76.3 °F 62.6 °F 62% 30.02 in 10.0 mi ESE 3.5 mph - N/A   Scattered Clouds
5:10 PM 76.1 °F 64.0 °F 66% 30.01 in 10.0 mi East 3.5 mph - N/A   Scattered Clouds
5:30 PM 75.6 °F 64.0 °F 67% 30.01 in 10.0 mi East 3.5 mph - N/A   Clear
5:50 PM 75.2 °F 64.2 °F 69% 30.01 in 7.0 mi Calm Calm - N/A   Clear
6:10 PM 74.5 °F 64.4 °F 71% 30.00 in 10.0 mi East 3.5 mph - N/A   Clear
6:30 PM 73.8 °F 64.6 °F 73% 30.00 in 10.0 mi East 3.5 mph - N/A   Clear
6:50 PM 73.2 °F 64.0 °F 73% 30.00 in 10.0 mi East 4.6 mph - N/A   Clear
7:10 PM 72.5 °F 64.2 °F 75% 29.99 in 10.0 mi East 4.6 mph - N/A   Clear
7:35 PM 71.4 °F 63.7 °F 76% 29.99 in 7.0 mi ESE 4.6 mph - N/A   Clear
7:50 PM 70.9 °F 64.0 °F 79% 29.99 in 10.0 mi ESE 4.6 mph - N/A   Clear
8:10 PM 70.2 °F 64.8 °F 83% 29.99 in 10.0 mi ESE 3.5 mph - N/A   Clear
8:30 PM 70.0 °F 64.9 °F 84% 30.00 in 10.0 mi East 3.5 mph - N/A   Clear
8:50 PM 69.4 °F 64.8 °F 85% 29.99 in 10.0 mi ESE 4.6 mph - N/A   Scattered Clouds
9:10 PM 69.3 °F 64.6 °F 85% 29.99 in 10.0 mi East 5.8 mph - N/A   Mostly Cloudy
9:30 PM 69.8 °F 64.4 °F 83% 30.00 in 10.0 mi East 4.6 mph - N/A   Mostly Cloudy
9:50 PM 69.1 °F 63.7 °F 83% 30.00 in 10.0 mi ESE 4.6 mph - N/A   Scattered Clouds
10:10 PM 68.9 °F 63.9 °F 84% 30.00 in 10.0 mi East 4.6 mph - N/A   Mostly Cloudy
10:30 PM 68.5 °F 63.9 °F 85% 30.00 in 10.0 mi ESE 3.5 mph - N/A   Mostly Cloudy
10:50 PM 69.8 °F 64.4 °F 83% 29.99 in 10.0 mi SE 4.6 mph - N/A   Mostly Cloudy
11:10 PM 69.1 °F 63.7 °F 83% 29.99 in 10.0 mi SE 4.6 mph - N/A   Scattered Clouds
11:30 PM 68.9 °F 63.9 °F 84% 29.99 in 10.0 mi ESE 3.5 mph - N/A   Scattered Clouds